Voltar ao catálogo

ARIANE 44L+ DEB

AtivoGTO
NORAD 23237·DEBRIS·🇫🇷 France

Lançado Apr 15, 1992 de Guiana Space Centre

Loading…

TLE

ObsoletoSource: Space-Track

Época: Sep 14, 2026, 05:07 UTC

1 23237U 92021G   26257.21363069  .00000113  00000-0  12310-1 0  9996
2 23237   3.4769 254.9291 7043608 353.3537  86.6565  2.25017942267752

Acompanhe ARIANE 44L+ DEB em tempo real com AllMySat

Download on the App Store